• In Belarus
  • List of Countries
  • For 7 days
  • Water Temperature
  • Satellite Maps
  • Weather Map
  • Weather Widgets
  • user-avatar
    Login

    Hourly Weather Oruro

    Today, 18 July, Wednesday

    Time Temperature Precipitation Wind Pressure Humidity
    00:00 +3°C° 0 mm 3 mps 474 mmHg 59%
    01:00 +3°C° 0 mm 3 mps 474 mmHg 61%
    02:00 +3°C° 0 mm 2 mps 474 mmHg 63%
    03:00 +3°C° 0 mm 2 mps 473 mmHg 65%
    04:00 +2°C° 0 mm 2 mps 473 mmHg 66%
    05:00 +2°C° 0 mm 2 mps 473 mmHg 68%
    06:00 +3°C° 0 mm 2 mps 473 mmHg 65%
    07:00 +3°C° 0 mm 2 mps 474 mmHg 62%
    08:00 +4°C° 0 mm 2 mps 474 mmHg 60%
    09:00 +5°C° 0 mm 3 mps 476 mmHg 51%
    10:00 +7°C° 0 mm 4 mps 477 mmHg 43%
    11:00 +9°C° 0 mm 5 mps 478 mmHg 34%
    12:00 +10°C° 0 mm 6 mps 478 mmHg 32%
    13:00 +11°C° 0 mm 7 mps 478 mmHg 31%
    14:00 +12°C° 0 mm 8 mps 478 mmHg 29%
    15:00 +11°C° 0 mm 8 mps 477 mmHg 32%
    16:00 +10°C° 0 mm 9 mps 476 mmHg 35%
    17:00 +10°C° 0 mm 9 mps 476 mmHg 38%
    18:00 +7°C° 0 mm 8 mps 475 mmHg 46%
    19:00 +5°C° 0 mm 7 mps 474 mmHg 54%
    20:00 +5°C° 0 mm 5 mps 474 mmHg 62%
    21:00 +3°C° 0 mm 5 mps 473 mmHg 64%
    22:00 +4°C° 0 mm 4 mps 473 mmHg 66%
    23:00 +3°C° 0 mm 3 mps 473 mmHg 69%

    Tomorrow, 19 July, Thursday

    Time Temperature Precipitation Wind Pressure Humidity
    00:00 +2°C° 0 mm 3 mps 473 mmHg 71%
    01:00 +2°C° 0 mm 3 mps 472 mmHg 74%
    02:00 +3°C° 0 mm 2 mps 472 mmHg 77%
    03:00 +2°C° 0 mm 2 mps 472 mmHg 79%
    04:00 +2°C° 0 mm 2 mps 471 mmHg 80%
    05:00 +1°C° 0 mm 2 mps 471 mmHg 82%
    06:00 +1°C° 0 mm 3 mps 471 mmHg 79%
    07:00 +1°C° 0 mm 3 mps 472 mmHg 75%
    08:00 +1°C° 0 mm 3 mps 473 mmHg 71%
    09:00 +3°C° 0 mm 5 mps 474 mmHg 59%
    10:00 +5°C° 0 mm 6 mps 476 mmHg 46%
    11:00 +9°C° 0 mm 8 mps 477 mmHg 33%
    12:00 +10°C° 0 mm 8 mps 477 mmHg 32%
    13:00 +11°C° 0 mm 9 mps 477 mmHg 31%
    14:00 +11°C° 0 mm 10 mps 477 mmHg 30%
    15:00 +11°C° 0.1 mm 9 mps 476 mmHg 34%
    16:00 +10°C° 0.1 mm 9 mps 476 mmHg 37%
    17:00 +9°C° 0.1 mm 8 mps 475 mmHg 41%
    18:00 +8°C° 0.4 mm 7 mps 475 mmHg 47%
    19:00 +7°C° 0.4 mm 6 mps 475 mmHg 54%
    20:00 +6°C° 0.4 mm 4 mps 475 mmHg 60%
    21:00 +5°C° 0.4 mm 4 mps 475 mmHg 60%
    22:00 +5°C° 0.4 mm 4 mps 475 mmHg 59%
    23:00 +5°C° 0.4 mm 4 mps 475 mmHg 59%

    Day after tomorrow, 20 July, Friday

    Time Temperature Precipitation Wind Pressure Humidity
    00:00 +4°C° 0 mm 4 mps 475 mmHg 58%
    01:00 +3°C° 0 mm 3 mps 474 mmHg 58%
    02:00 +3°C° 0 mm 3 mps 474 mmHg 57%
    03:00 +3°C° 0 mm 3 mps 474 mmHg 59%
    04:00 +2°C° 0 mm 3 mps 473 mmHg 60%
    05:00 +3°C° 0 mm 2 mps 473 mmHg 61%
    06:00 +2°C° 0 mm 3 mps 473 mmHg 60%
    07:00 +2°C° 0 mm 3 mps 474 mmHg 59%
    08:00 +1°C° 0 mm 4 mps 474 mmHg 57%
    09:00 +4°C° 0 mm 4 mps 476 mmHg 49%
    10:00 +6°C° 0 mm 5 mps 477 mmHg 40%
    11:00 +8°C° 0 mm 6 mps 478 mmHg 32%
    12:00 +9°C° 0 mm 6 mps 478 mmHg 29%
    13:00 +10°C° 0 mm 6 mps 478 mmHg 27%
    14:00 +10°C° 0 mm 6 mps 478 mmHg 24%
    15:00 +10°C° 0 mm 5 mps 478 mmHg 27%
    16:00 +10°C° 0 mm 5 mps 477 mmHg 29%
    17:00 +9°C° 0 mm 5 mps 477 mmHg 31%
    18:00 +8°C° 0 mm 4 mps 476 mmHg 38%
    19:00 +7°C° 0 mm 4 mps 476 mmHg 44%
    20:00 +5°C° 0 mm 3 mps 475 mmHg 51%
    21:00 +5°C° 0 mm 3 mps 475 mmHg 53%
    22:00 +5°C° 0 mm 3 mps 476 mmHg 55%
    23:00 +4°C° 0 mm 3 mps 476 mmHg 56%

    21 July, Saturday

    Time Temperature Precipitation Wind Pressure Humidity
    00:00 +5°C° 0 mm 2 mps 475 mmHg 58%
    01:00 +4°C° 0 mm 2 mps 475 mmHg 59%
    02:00 +4°C° 0 mm 2 mps 475 mmHg 60%
    03:00 +4°C° 0 mm 2 mps 474 mmHg 61%
    04:00 +4°C° 0 mm 2 mps 474 mmHg 62%
    05:00 +4°C° 0 mm 2 mps 474 mmHg 63%
    06:00 +4°C° 0.2 mm 2 mps 474 mmHg 63%
    07:00 +4°C° 0.2 mm 2 mps 475 mmHg 63%
    08:00 +4°C° 0.2 mm 2 mps 475 mmHg 63%
    09:00 +4°C° 0.4 mm 2 mps 475 mmHg 62%
    10:00 +4°C° 0.4 mm 2 mps 476 mmHg 61%
    11:00 +5°C° 0.4 mm 2 mps 476 mmHg 60%
    12:00 +4°C° 0.7 mm 2 mps 476 mmHg 62%
    13:00 +5°C° 0.7 mm 1 mps 475 mmHg 65%
    14:00 +5°C° 0.7 mm 1 mps 475 mmHg 67%
    15:00 +5°C° 0.5 mm 1 mps 474 mmHg 68%
    16:00 +4°C° 0.5 mm 2 mps 474 mmHg 69%
    17:00 +4°C° 0.5 mm 2 mps 474 mmHg 71%
    18:00 +4°C° 0.3 mm 2 mps 474 mmHg 73%
    19:00 +3°C° 0.3 mm 2 mps 474 mmHg 76%
    20:00 +3°C° 0.3 mm 2 mps 474 mmHg 78%
    21:00 +3°C° 0.3 mm 2 mps 474 mmHg 79%
    22:00 +3°C° 0.3 mm 2 mps 474 mmHg 79%
    23:00 +2°C° 0.3 mm 2 mps 475 mmHg 80%

    22 July, Sunday

    Time Temperature Precipitation Wind Pressure Humidity
    00:00 +2°C° 0.1 mm 2 mps 474 mmHg 80%
    01:00 +1°C° 0.1 mm 3 mps 474 mmHg 80%
    02:00 +1°C° 0.1 mm 3 mps 473 mmHg 81%
    03:00 0°C° 0 mm 3 mps 473 mmHg 80%
    04:00 0°C° 0 mm 3 mps 473 mmHg 80%
    05:00 +1°C° 0 mm 2 mps 473 mmHg 80%
    06:00 0°C° 0 mm 3 mps 473 mmHg 78%
    07:00 0°C° 0 mm 3 mps 473 mmHg 76%
    08:00 0°C° 0 mm 3 mps 474 mmHg 74%
    09:00 0°C° 0 mm 4 mps 475 mmHg 67%
    10:00 +3°C° 0 mm 4 mps 475 mmHg 61%
    11:00 +5°C° 0 mm 5 mps 476 mmHg 55%
    12:00 +5°C° 0 mm 6 mps 476 mmHg 51%
    13:00 +7°C° 0 mm 6 mps 476 mmHg 47%
    14:00 +8°C° 0 mm 7 mps 476 mmHg 43%
    15:00 +8°C° 0 mm 7 mps 476 mmHg 41%
    16:00 +7°C° 0 mm 6 mps 476 mmHg 40%
    17:00 +7°C° 0 mm 6 mps 476 mmHg 38%
    18:00 +6°C° 0 mm 5 mps 475 mmHg 43%
    19:00 +3°C° 0 mm 5 mps 474 mmHg 47%
    20:00 +1°C° 0 mm 4 mps 474 mmHg 52%
    21:00 +1°C° 0 mm 4 mps 474 mmHg 52%
    22:00 +1°C° 0 mm 3 mps 474 mmHg 52%
    23:00 +1°C° 0 mm 3 mps 474 mmHg 52%

    23 July, Monday

    Time Temperature Precipitation Wind Pressure Humidity
    00:00 0°C° 0 mm 3 mps 473 mmHg 54%
    01:00 +1°C° 0 mm 2 mps 473 mmHg 55%
    02:00 -1°C° 0 mm 2 mps 472 mmHg 57%
    03:00 -1°C° 0 mm 2 mps 472 mmHg 58%
    04:00 -2°C° 0 mm 2 mps 472 mmHg 60%
    05:00 -2°C° 0 mm 2 mps 471 mmHg 61%
    06:00 -1°C° 0 mm 2 mps 472 mmHg 58%
    07:00 -1°C° 0 mm 2 mps 473 mmHg 55%
    08:00 +1°C° 0 mm 2 mps 474 mmHg 52%
    09:00 +2°C° 0 mm 3 mps 475 mmHg 46%
    10:00 +4°C° 0 mm 3 mps 477 mmHg 40%
    11:00 +8°C° 0 mm 3 mps 478 mmHg 33%
    12:00 +8°C° 0 mm 4 mps 478 mmHg 31%
    13:00 +9°C° 0 mm 5 mps 478 mmHg 28%
    14:00 +10°C° 0 mm 5 mps 478 mmHg 25%
    15:00 +9°C° 0 mm 5 mps 478 mmHg 26%
    16:00 +9°C° 0 mm 5 mps 477 mmHg 28%
    17:00 +9°C° 0 mm 5 mps 477 mmHg 29%
    18:00 +7°C° 0 mm 5 mps 476 mmHg 36%
    19:00 +5°C° 0 mm 4 mps 476 mmHg 44%
    20:00 +4°C° 0 mm 4 mps 475 mmHg 51%
    21:00 +3°C° 0 mm 4 mps 475 mmHg 56%
    22:00 +3°C° 0 mm 4 mps 475 mmHg 61%
    23:00 +2°C° 0 mm 3 mps 475 mmHg 66%
    Show more